www.pogodaiklimat.ru

Погода и климат >> Архив погоды >> Норвегия >> Маяк Stromtangen


ПОГОДА на Маяке Stromtangen

  • Прогноз погоды на Маяке Stromtangen
  • Монитор погоды на Маяке Stromtangen

АРХИВ ПОГОДЫ на Маяке Stromtangen

Время (UTC), дата Ветер
(напр.,м/с)
 
Видим.   Явления Облачность Т
(С)
Тd
(С)
f
(%)
Тe
(С)
Тes
(С)
Комфортность P
(гПа)
Po
(гПа)
Тmin
(С)
Tmax
(С)
R
(мм)
R24
(мм)
S
(см)
04 19.08 ЮЗ 10
{12}
н/о н/о +16.3 +15 +15 1001.6 1000.4
05 19.08 ЮЗ 9
{12}
н/о н/о +16.3 +15 +15 1002.1 1000.9
06 19.08 З 9
{15}
н/о н/о +15.4 +14 +14 1002.5 1001.3 +14.6 +17.0 2
07 19.08 ЮЗ 11
{14}
н/о н/о +16.9 +15 +15 1002.8 1001.6
08 19.08 ЮЗ 12
{20}
н/о н/о +14.7 +12 +12 1003.2 1002.0
09 19.08 ЮЗ 11
{16}
н/о н/о +15.2 +13 +13 1003.3 1002.1 1
10 19.08 ЮЗ 13
{16}
н/о н/о +16.4 +14 +14 1003.4 1002.2
11 19.08 ЮЗ 12
{16}
н/о н/о +16.8 +15 +15 1003.8 1002.6
12 19.08 ЮЗ 13
{20}
н/о н/о +17.2 +15 +15 1004.3 1003.1
13 19.08 ЮЗ 12
{16}
н/о н/о +17.4 +16 +16 1004.9 1003.7
14 19.08 ЮЗ 12
{16}
н/о н/о +17.3 +16 +16 1005.4 1004.2
15 19.08 ЮЗ 13
{16}
н/о н/о +17.0 +15 +15 1005.6 1004.4
16 19.08 ЮЗ 12
{16}
н/о н/о +17.1 +15 +15 1005.9 1004.7
17 19.08 ЮЗ 14
{17}
н/о н/о +17.3 +16 +16 1006.4 1005.2
18 19.08 ЮЗ 13
{17}
н/о н/о +17.1 +15 +15 1006.6 1005.4 +14.3 +17.5 2
19 19.08 ЮЗ 13
{16}
н/о н/о +17.0 +15 +15 1007.3 1006.1
20 19.08 ЮЗ 12
{15}
н/о н/о +17.0 +15 +15 1007.9 1006.7
21 19.08 ЮЗ 12
{15}
н/о н/о +16.9 +15 +15 1008.2 1007.0
22 19.08 ЮЗ 11
{14}
н/о н/о +16.8 +15 +15 1008.7 1007.5
23 19.08 ЮЗ 11
{14}
н/о н/о +16.8 +15 +15 1008.8 1007.6
00 20.08 ЮЗ 10
{16}
н/о н/о +16.6 +15 +15 1009.0 1007.8
01 20.08 ЮЗ 10
{12}
н/о н/о +16.6 +15 +15 1009.3 1008.1
02 20.08 ЮЗ 10
{12}
н/о н/о +16.3 +15 +15 1009.6 1008.4
03 20.08 ЮЗ 10
{12}
н/о н/о +16.3 +15 +15 1009.9 1008.7
04 20.08 ЮЗ 10
{12}
н/о н/о +16.2 +15 +15 1010.6 1009.4
05 20.08 ЮЗ 10
{12}
н/о н/о +16.2 +15 +15 1010.9 1009.7
06 20.08 ЮЗ 12
{14}
н/о н/о +16.0 +14 +14 1011.4 1010.2 +16.0 +17.2
07 20.08 З 12
{14}
н/о н/о +16.4 +15 +15 1012.2 1011.0
08 20.08 ЮЗ 9
{13}
н/о н/о +16.4 +15 +15 1012.7 1011.5
09 20.08 ЮЗ 12
{14}
н/о н/о +16.8 +15 +15 1013.1 1011.9
10 20.08 ЮЗ 11
{14}
н/о н/о +16.8 +15 +15 1013.6 1012.4
11 20.08 ЮЗ 11
{14}
н/о н/о +16.9 +15 +15 1014.0 1012.8
12 20.08 ЮЗ 12
{14}
н/о н/о +17.0 +15 +15 1014.1 1012.9
13 20.08 ЮЗ 12
{15}
н/о н/о +17.0 +15 +15 1014.5 1013.3
14 20.08 ЮЗ 11
{14}
н/о н/о +17.1 +16 +16 1014.5 1013.3
15 20.08 ЮЗ 11
{14}
н/о н/о +17.2 +16 +16 1014.5 1013.3
16 20.08 ЮЗ 11
{14}
н/о н/о +17.0 +15 +15 1014.8 1013.6
17 20.08 ЮЗ 11
{14}
н/о н/о +16.9 +15 +15 1015.1 1013.9
18 20.08 ЮЗ 12
{15}
н/о н/о +16.9 +15 +15 1015.3 1014.1 +16.0 +17.3 0.5
19 20.08 ЮЗ 12
{15}
н/о н/о +16.8 +15 +15 1015.5 1014.3
20 20.08 ЮЗ 11
{13}
н/о н/о +17.0 +15 +15 1015.6 1014.4
21 20.08 ЮЗ 12
{14}
н/о н/о +16.9 +15 +15 1015.8 1014.6
22 20.08 ЮЗ 11
{13}
н/о н/о +16.9 +15 +15 1016.1 1014.9
23 20.08 ЮЗ 11
{13}
н/о н/о +16.3 +15 +15 1016.4 1015.2
00 21.08 ЮЗ 10
{15}
н/о н/о +16.0 +14 +14 1016.6 1015.4
01 21.08 ЮЗ 9
{11}
н/о н/о +15.8 +14 +14 1016.8 1015.6
02 21.08 ЮЗ 7
{10}
н/о н/о +15.6 +14 +14 1017.1 1015.9
03 21.08 З 6
{8}
н/о н/о +15.6 +15 +15 1017.5 1016.3
04 21.08 З 5
{7}
н/о н/о +14.9 +14 +14 1018.0 1016.7
05 21.08 З 3
{6}
н/о н/о +15.0 +15 +15 1018.4 1017.1
06 21.08 З 5
{11}
н/о н/о +14.8 +14 +14 1019.1 1017.8 +14.7 +17.0
07 21.08 СЗ 5
{6}
н/о н/о +15.3 +14 +14 1019.5 1018.2
08 21.08 СЗ 4
{6}
н/о н/о +15.4 +15 +15 1019.8 1018.5
09 21.08 СЗ 4
{5}
н/о н/о +16.0 +16 +16 1020.1 1018.9
10 21.08 З 3
{5}
н/о н/о +16.5 +16 +16 1020.3 1019.1
11 21.08 ЮЗ 5
{5}
н/о н/о +16.5 +16 +16 1020.7 1019.5
12 21.08 ЮЗ 5
{6}
н/о н/о +16.9 +16 +16 1020.8 1019.6
13 21.08 ЮЗ 7
{8}
н/о н/о +17.1 +16 +16 1020.8 1019.6
14 21.08 ЮЗ 10
{11}
н/о н/о +17.3 +16 +16 1020.8 1019.6
15 21.08 ЮЗ 11
{13}
н/о н/о +17.2 +16 +16 1020.8 1019.6
16 21.08 ЮЗ 10
{13}
н/о н/о +17.4 +16 +16 1020.8 1019.6
17 21.08 ЮЗ 10
{12}
н/о н/о +17.3 +16 +16 1020.8 1019.6
18 21.08 ЮЗ 11
{13}
н/о н/о +17.2 +16 +16 1020.6 1019.4 +14.8 +17.5
19 21.08 ЮЗ 11
{13}
н/о н/о +17.3 +16 +16 1020.5 1019.3
20 21.08 ЮЗ 11
{14}
н/о н/о +17.5 +16 +16 1020.6 1019.4
21 21.08 ЮЗ 12
{14}
н/о н/о +17.5 +16 +16 1021.0 1019.8
22 21.08 ЮЗ 11
{13}
н/о н/о +16.9 +15 +15 1021.3 1020.1
23 21.08 З 10
{13}
н/о н/о +16.6 +15 +15 1021.5 1020.3
00 22.08 ЮЗ 9
{14}
н/о н/о +16.2 +15 +15 1021.7 1020.5
01 22.08 ЮЗ 11
{13}
н/о н/о +16.0 +14 +14 1022.1 1020.8
02 22.08 З 9
{12}
н/о н/о +16.3 +15 +15 1022.1 1020.9
03 22.08 ЮЗ 9
{11}
н/о н/о +16.2 +15 +15 1022.1 1020.8
04 22.08 ЮЗ 7
{11}
н/о н/о +16.1 +15 +15 1021.7 1020.4
05 22.08 н/о
06 22.08 З 5
{13}
н/о н/о +14.7 +14 +14 1021.4 1020.1 +14.1 +17.6 16
07 22.08 ЮЗ 7
{12}
н/о н/о +15.2 +14 +14 1021.1 1019.8 2
08 22.08 ЮЗ 9
{14}
н/о н/о +16.6 +15 +15 1020.7 1019.5
09 22.08 Ю 11
{14}
н/о н/о +16.6 +15 +15 1020.7 1019.5
10 22.08 Ю 13
{15}
н/о н/о +16.4 +14 +14 1020.4 1019.2
11 22.08 Ю 14
{16}
н/о н/о +16.6 +15 +15 1019.9 1018.7
12 22.08 Ю 13
{17}
н/о н/о +16.6 +15 +15 1019.4 1018.2
13 22.08 Ю 13
{18}
н/о н/о +16.6 +15 +15 1018.9 1017.7
14 22.08 Ю 15
{20}
н/о н/о +16.6 +15 +15 1017.6 1016.4
15 22.08 ЮЗ 14
{28}
н/о н/о +15.8 +14 +14 1017.6 1016.4 2
16 22.08 ЮЗ 17
{20}
н/о н/о +15.9 +13 +13 1017.4 1016.2
17 22.08 ЮЗ 14
{19}
н/о н/о +15.9 +14 +14 1017.2 1016.0
18 22.08 ЮЗ 13
{28}
н/о н/о +16.2 +14 +14 1017.1 1015.9 +14.3 +16.7 7
19 22.08 ЮЗ 13
{17}
н/о н/о +16.3 +14 +14 1017.4 1016.2
20 22.08 ЮЗ 14
{17}
н/о н/о +16.6 +15 +15 1017.6 1016.4
21 22.08 ЮЗ 14
{17}
н/о н/о +16.7 +15 +15 1017.8 1016.6
22 22.08 ЮЗ 11
{15}
н/о н/о +16.4 +15 +15 1017.7 1016.5
23 22.08 ЮЗ 10
{13}
н/о н/о +16.6 +15 +15 1017.7 1016.5
00 23.08 ЮЗ 9
{17}
н/о н/о +16.5 +15 +15 1017.7 1016.5
01 23.08 ЮЗ 10
{13}
н/о н/о +16.1 +14 +14 1017.4 1016.2
02 23.08 Ю 10
{12}
н/о н/о +16.4 +15 +15 1016.2 1015.0 1
03 23.08 ЮЗ 13
{16}
н/о н/о +16.5 +15 +15 1015.4 1014.2
04 23.08 ЮЗ 13
{17}
н/о н/о +16.6 +15 +15 1015.3 1014.1
05 23.08 ЮЗ 12
{16}
н/о н/о +16.7 +15 +15 1015.2 1014.0
06 23.08 ЮЗ 12
{17}
н/о н/о +16.9 +15 +15 1015.4 1014.2 +15.4 +16.9 2
07 23.08 ЮЗ 11
{15}
н/о н/о +17.0 +15 +15 1015.5 1014.3
08 23.08 ЮЗ 11
{14}
н/о н/о +17.1 +16 +16 1015.9 1014.7
09 23.08 ЮЗ 10
{14}
н/о н/о +17.2 +16 +16 1016.1 1014.9
10 23.08 ЮЗ 10
{12}
н/о н/о +17.4 +16 +16 1016.0 1014.8
11 23.08 ЮЗ 11
{13}
н/о н/о +17.4 +16 +16 1016.3 1015.1
12 23.08 ЮЗ 11
{15}
н/о н/о +17.8 +16 +16 1016.9 1015.7
13 23.08 ЮЗ 10
{13}
н/о н/о +18.2 +17 +17 1017.1 1015.9
14 23.08 ЮЗ 12
{15}
н/о н/о +18.2 +17 +17 1017.4 1016.2
15 23.08 ЮЗ 12
{17}
н/о н/о +18.2 +17 +17 1018.0 1016.8
16 23.08 ЮЗ 11
{14}
н/о н/о +18.4 +17 +17 1018.2 1017.0
17 23.08 ЮЗ 10
{13}
н/о н/о +18.4 +17 +17 1018.5 1017.3
18 23.08 З 8
{17}
н/о н/о +18.0 +17 +17 1019.0 1017.8 +16.9 +18.6
19 23.08 З 9
{12}
н/о н/о +18.0 +17 +17 1019.4 1018.2
20 23.08 ЮЗ 8
{10}
н/о н/о +18.0 +17 +17 1019.7 1018.5
21 23.08 З 9
{11}
н/о н/о +17.8 +17 +17 1020.2 1019.0
22 23.08 З 9
{10}
н/о н/о +17.7 +17 +17 1020.6 1019.4
23 23.08 З 6
{10}
н/о н/о +17.5 +17 +17 1021.2 1020.0
00 24.08 СЗ 3
{12}
н/о н/о +17.2 +17 +17 1021.6 1020.4
01 24.08 С 2
{5}
н/о н/о +16.6 +17 +17 1022.0 1020.8
02 24.08 С 1
{3}
н/о н/о +15.6 +17 +17 1022.5 1021.2
03 24.08 СВ 2
{3}
н/о н/о +14.9 +15 +15 1022.8 1021.5
04 24.08 В 2
{2}
н/о н/о +15.2 +15 +15 1023.2 1021.9
05 24.08 В 1
{3}
н/о н/о +15.6 +17 +17 1023.5 1022.2
06 24.08 В 2
{5}
н/о н/о +15.9 +16 +16 1023.9 1022.6 +14.9 +18.1
07 24.08 В 1
{2}
н/о н/о +16.7 +18 +18 1024.0 1022.8
08 24.08 Ю 3
{3}
н/о н/о +17.3 +17 +17 1024.7 1023.5
09 24.08 н/о
10 24.08 Ю 5
{5}
н/о н/о +17.6 +17 +17 1025.3 1024.1
11 24.08 Ю 7
{8}
н/о н/о +17.5 +17 +17 1025.4 1024.2
12 24.08 Ю 6
{8}
н/о н/о +17.9 +17 +17 1025.4 1024.2
13 24.08 Ю 5
{7}
н/о н/о +17.8 +17 +17 1025.6 1024.4
14 24.08 Ю 5
{6}
н/о н/о +17.9 +18 +18 1025.7 1024.5
15 24.08 Ю 5
{6}
н/о н/о +18.0 +18 +18 1025.3 1024.1
16 24.08 Ю 6
{7}
н/о н/о +17.9 +17 +17 1025.2 1024.0
17 24.08 Ю 6
{7}
н/о н/о +17.5 +17 +17 1025.2 1024.0
18 24.08 Ю 5
{7}
н/о н/о +17.2 +17 +17 1025.2 1024.0 +15.8 +18.4 2
19 24.08 Ю 5
{7}
н/о н/о +16.9 +16 +16 1025.5 1024.2
20 24.08 Ю 6
{8}
н/о н/о +16.8 +16 +16 1025.4 1024.1
21 24.08 Ю 6
{8}
н/о н/о +17.0 +16 +16 1025.3 1024.0
22 24.08 Ю 5
{7}
н/о н/о +17.2 +17 +17 1025.4 1024.1
23 24.08 Ю 5
{7}
н/о н/о +17.3 +17 +17 1025.4 1024.2
00 25.08 Ю 4
{8}
н/о н/о +17.1 +17 +17 1025.4 1024.1
01 25.08 ЮВ 3
{5}
н/о н/о +16.8 +17 +17 1025.4 1024.1
02 25.08 Ю 4
{5}
н/о н/о +16.9 +17 +17 1025.2 1023.9
03 25.08 Ю 4
{6}
н/о н/о +17.1 +17 +17 1024.9 1023.7
04 25.08 Ю 4
{5}
н/о н/о +16.9 +17 +17 1024.7 1023.4
05 25.08 Ю 5
{6}
н/о н/о +16.7 +16 +16 1024.7 1023.4
06 25.08 Ю 4
{6}
н/о н/о +16.9 +17 +17 1024.8 1023.5 +16.6 +17.3
07 25.08 Ю 4
{5}
н/о н/о +17.4 +17 +17 1025.0 1023.8
08 25.08 Ю 5
{6}
н/о н/о +17.6 +17 +17 1025.1 1023.9
09 25.08 Ю 4
{5}
н/о н/о +18.1 +18 +18 1025.1 1023.9
10 25.08 Ю 3
{4}
н/о н/о +18.7 +19 +19 1024.8 1023.6
11 25.08 Ю 4
{4}
н/о н/о +18.7 +18 +18 1024.7 1023.5
12 25.08 ЮЗ 5
{6}
н/о н/о +18.9 +18 +18 1024.5 1023.3
13 25.08 ЮЗ 4
{6}
н/о н/о +18.8 +18 +18 1024.5 1023.3
14 25.08 ЮЗ 3
{5}
н/о н/о +19.0 +19 +19 1024.6 1023.4
15 25.08 Ю 3
{4}
н/о н/о +19.3 +19 +19 1024.3 1023.1
16 25.08 Ю 4
{5}
н/о н/о +18.9 +18 +18 1023.9 1022.7
17 25.08 Ю 4
{5}
н/о н/о +18.6 +18 +18 1023.7 1022.5
18 25.08 Ю 4
{6}
н/о н/о +18.4 +18 +18 1023.6 1022.4 +16.9 +19.6
19 25.08 ЮЗ 3
{5}
н/о н/о +18.2 +18 +18 1023.6 1022.4
20 25.08 ЮЗ 4
{5}
н/о н/о +18.2 +18 +18 1023.8 1022.6
21 25.08 Ю 2
{4}
н/о н/о +18.0 +19 +19 1024.1 1022.9
22 25.08 Ю 2
{3}
н/о н/о +17.3 +18 +18 1024.3 1023.1
23 25.08 Ю 2
{3}
н/о н/о +17.3 +18 +18 1024.2 1023.0
00 26.08 ЮВ 2
{5}
н/о н/о +16.8 +17 +17 1024.0 1022.8
01 26.08 В 2
{3}
н/о н/о +16.6 +17 +17 1023.9 1022.6
02 26.08 В 2
{3}
н/о н/о +15.7 +16 +16 1023.8 1022.5
03 26.08 СВ 3
{4}
н/о н/о +15.2 +15 +15 1023.8 1022.5
04 26.08 В 3
{4}
н/о н/о +14.9 +15 +15 1023.9 1022.6
05 26.08 В 3
{3}
н/о н/о +15.9 +16 +16 1023.8 1022.5

 

Местоположение метеостанции Маяк Stromtangen (Норвегия): широта 59.15 долгота 10.83 высота над уровнем моря 10 м.

В архиве по умолчанию представлена погода на Маяке Stromtangen за последнюю неделю. Архивные данные за месяц целиком и за предыдущие месяцы, начиная с января 2011 года, Вы можете получить, выбрав интересующий диапазон дат из раскрывающегося списка и нажав кнопку "Ввод!".


*Определитесь, кто Вы:
робот инопланетянин человек

Внимание! Время в таблицах - всемирное. Для получения местного времени необходимо прибавить поправку, которая равна 1 ч.

Смотрите также архив погоды в соседних городах и на ближайших метеорологических станциях:

Погода на Маяке Ferder (Норвегия) (22 км)
Погода в Сарпсборге (Норвегия) (22 км)
Погода в Рюгге (Норвегия) (26 км)
Погода в Мелсоме (Норвегия) (29 км)
Погода в Нордкостере (Швеция) (29 км)
Погода на Гуллхолмене (Норвегия) (34 км)
Погода на Маяке Svenner (Норвегия) (44 км)
Погода в Асе (Норвегия) (57 км)
Погода в Санде-Галлеберге (Норвегия) (63 км)
Погода на Вадероарна (Швеция) (65 км)

Пояснения к столбцам:

Ветер - указаны скорость ветра в м/с - средняя за 10 мин, порывы в срок и между сроками (в фигурных скобках) и направление, откуда дует ветер: С - северный, СВ - северо-восточный, В - восточный, ЮВ - юго-восточный, Ю - южный, ЮЗ - юго-западный, З - западный, СЗ - северо-западный.
Видимость - горизонтальная дальность видимости в метрах или километрах. При видимости от 1 до 10 км при отсутствии осадков обычно наблюдается дымка, при ухудшении видимости до 1 км и менее - туман. В сухую погоду видимость может ухудшаться дымом, пылью или мглою.
Явления - указаны атмосферные явления, наблюдавшиеся в срок или в последний час перед сроком; фигурными скобками обозначены явления, наблюдавшиеся между сроками (за 1-3 часа до срока); квадратными скобками обозначены град или гололедные отложения с указанием их диаметра в мм.
Облачность - указаны через наклонную черту общая и нижняя облачность в баллах и высота нижней границы облаков в метрах; квадратными скобками обозначены формы облаков: Ci - перистые, Cs - перисто-слоистые, Cc - перисто-кучевые, Ac - высококучевые, As - высокослоистые, Sc - слоисто-кучевые, Ns - слоисто-дождевые, Cu - кучевые, Cb - кучево-дождевые. Подробнее классификацию облаков см. в Атласе облаков (PDF).
T - Температура воздуха - температура, измеренная на высоте 2 м над землей.
Td - Температура точки росы - температура, при понижении до которой содержащийся в воздухе водяной пар достигнет насыщения.
f - Относительная влажность воздуха - влажноcть воздуха, измеренная на высоте 2 м над землей.
Te - Эффективная температура - температура, которую ощущает одетый по сезону человек в тени. Характеристика душности погоды. При расчете учитывается влияние влажности воздуха и скорости ветра на теплоощущения человека.
Tes - Эффективная температура на солнце - температура, которую ощущает человек, с поправкой на солнечный нагрев. Характеристика знойности погоды. Зависит от высоты солнца над горизонтом, облачности и скорости ветра. Ночью, в пасмурную погоду, а также при ветре 12 м/с и более поправка равна нулю.
P - Атмосферное давление - приведенное к уровню моря атмосферное давление.
Po - Атмосферное давление - измеренное на уровне метеостанции атмосферное давление.
Tmin - Минимальная температура - минимум температуры воздуха на высоте 2 м над землей.
Tmax - Максимальная температура - максимум температуры воздуха на высоте 2 м над землей.
R - Количество осадков - Количество выпавших осадков за период времени, мм. При наведении курсора мыши на число - период времени, за который выпало указанное количество осадков.
R24 - Количество осадков - Количество выпавших осадков за 24 часа, мм.
S - Снежный покров - Высота снежного покрова, см. При наведении курсора мыши на число - состояние снежного покрова и степень покрытия местности в баллах.